Regional Weather Roundup
Issued by NWS

Home | Current Version | Previous Version | Text Only | Print | Product List | Glossary Off
Versions: 1 2 3 4 5 6 7 8 9 10 11 12 13 14 15 16 17 18 19 20 21 22 23 24 25 26 27 28 29 30 31 32 33 34 35 36 37 38 39 40 41 42 43 44 45 46 47 48 49 50

000
ASUS45 KSLC 040410
RWRUT

UTAH REGIONAL WEATHER ROUNDUP
NATIONAL WEATHER SERVICE SALT LAKE CITY UT
1000 PM MDT THU SEP 03 2015

UTZ001>011-023>025-040500-

NORTHERN UTAH

CITY           SKY/WX    TMP DP  RH WIND       PRES   REMARKS
BRIGHAM CITY   MOCLDY    75  36  24 CALM      29.76S
HILL AFB       PTCLDY    77  34  21 S13       29.80R
LOGAN          CLEAR     65  47  52 VRB3      29.81R
OGDEN          PTCLDY    77  35  21 S12       29.77R
PROVO AIRPORT  PTCLDY    75  45  33 S13       29.84R
SALT LAKE CITY PTCLDY    83  32  16 S17G25    29.77R
VERNAL         CLEAR     75  34  22 S12       29.92R
WENDOVER       PTCLDY    75  34  22 NW14      29.74R
HEBER CITY     PTCLDY    72  28  20 SW6       29.91R
WEST JORDAN    CLEAR     81  34  18 S16       29.82R

$$

UTZ012>022-026-027-040500-

SOUTHERN/CENTRAL UTAH

CITY           SKY/WX    TMP DP  RH WIND       PRES   REMARKS
BLANDING       CLEAR     71  37  28 S7        30.12R
BRYCE CANYON   CLEAR     51  35  54 W7        30.15R
CEDAR CITY     CLEAR     68  29  23 S9        29.97R
DELTA          CLEAR     75  28  17 S15       29.87R
HANKSVILLE     CLEAR     77  32  19 S7        29.91R
MILFORD        PTCLDY    70  34  26 S12       29.91R
MOAB/CYNLANDS  CLEAR     74  37  26 SW12      29.89R
PRICE          MOCLDY    68  37  32 N3        29.97R
ST GEORGE      PTCLDY    84  30  14 S10       29.81R
KANAB          PTCLDY    68  45  42 S3        30.02R

$$

REGIONAL REPORTS     COLORADO/ARIZONA

CITY           SKY/WX    TMP DP  RH WIND       PRES   REMARKS
CRAIG, CO      CLEAR     61  47  59 E7        30.06S
GRAND JUNCTION PTCLDY    72  49  44 SE14      29.95R
RIFLE          CLEAR     60  54  80 SW7       30.03S
MONTROSE       CLEAR     62  55  77 SE9       30.07R
CORTEZ         PTCLDY    63  45  51 E8        30.07R
PAGE, AZ       CLEAR     81  37  20 S8        29.91R
GRAND CANYON   PTCLDY    64  38  38 S8        30.15R
KINGMAN        CLEAR     77  38  24 S9        29.89R
FLAGSTAFF      CLOUDY    63  43  48 SW8       30.20R

$$

REGIONAL REPORTS    NEVADA/IDAHO/WYOMING

CITY           SKY/WX    TMP DP  RH WIND       PRES   REMARKS
LAS VEGAS, NV  CLEAR     89  33  13 SE5       29.70R
ELY            CLEAR     67  23  19 S12G26    29.94R
ELKO           CLEAR     67  32  27 CALM      29.83R
POCATELLO, ID  CLEAR     60  52  74 S5        29.84R
BURLEY         CLEAR     57  42  57 W12       29.86R
EVANSTON, WY   CLEAR     62  28  27 S10       30.01R
ROCK SPRINGS   PTCLDY    66  34  30 S14       29.99R
KEMMERER       PTCLDY    61  23  23 S5        30.02R

$$


USA.gov is the U.S. government's official web portal to all federal, state and local government web resources and services.